Tracking 27188 objects as of 1-Apr-2023
HD Live streaming from Space Station
objects crossing your sky now

SL-3 R/B

Track SL-3 R/B now!
10-day predictions
SL-3 R/B is classified as:


NORAD ID: 12904
Int'l Code: 1981-103B
Perigee: 529.7 km
Apogee: 566.3 km
Inclination: 81.2 °
Period: 95.5 minutes
Semi major axis: 6919 km
RCS: 5.653 m2 (large)
Launch date: October 13, 1981
Source: Commonwealth of Independent States (former USSR) (CIS)
Launch site: PLESETSK MISSILE AND SPACE COMPLEX (PKMTR)

Note: This is a ROCKET BODY
Your satellite tracking list
Your tracking list is empty




NASA's NSSDC Master Catalog

Two Line Element Set (TLE):
1 12904U 81103B   23090.62011167  .00007467  00000-0  47413-3 0  9993
2 12904  81.1816  19.1451 0026449 302.9110  56.9570 15.08459349810914
Source of the keplerian elements: AFSPC